www.pogodaiklimat.ru

Погода и климат >> Архив погоды >> Хорватия >> Senj


ПОГОДА в Senj

  • Прогноз погоды в Senj
  • Монитор погоды в Senj
  • Климат города

АРХИВ ПОГОДЫ в Senj

Время (UTC), дата Ветер
(напр.,м/с)
 
Видим.   Явления Облачность Т
(С)
Тd
(С)
f
(%)
Тe
(С)
Тes
(С)
Комфортность P
(гПа)
Po
(гПа)
Тmin
(С)
Tmax
(С)
R
(мм)
R24
(мм)
S
(см)
03 13.11 ЮВ 3 20 км 10/10 1000 м
[Sc]
+16.2 +7.6 57 +16 +16 993.5 990.2
04 13.11 ЮВ 3 20 км 10/10 1000 м
[Sc]
+15.5 +7.2 58 +15 +15 994.0 990.7
05 13.11 В 14
{25}
4000 м дождь 10/8 600 м
[St As op]
+9.4 +4.9 73 +4 +4 1019.2 1015.8
06 13.11 В 14 4000 м слабый дождь 10/10 600 м
[St]
+6.8 +2.4 74 0 0 995.7 992.3 +6.7 5
07 13.11 В 11
{34}
4000 м слабый дождь 10/10 600 м
[St]
+5.5 +1.7 76 -1 -1 997.1 993.7
08 13.11 В 11
{34}
8000 м слабый дождь 10/8 600 м
[St As op]
+5.4 +1.6 76 -1 -1 997.6 994.2
09 13.11 В 11
{32}
10 км слабый дождь 10/5 600 м
[St As op]
+6.2 +0.7 68 0 0 997.9 994.5
10 13.11 В 12
{35}
4000 м слабый дождь 10/3 600 м
[St As op]
+5.5 +1.4 75 -1 -1 999.2 995.8
11 13.11 В 17
{38}
15 км слабый дождь 10/10 600 м
[Sc]
+6.6 +0.7 66 -0 -0 998.8 995.4
12 13.11 В 12
{28}
12 км слабый дождь 10/10 600 м
[Sc]
+6.5 +0.3 65 +1 +1 998.9 995.5 11
13 13.11 В 11
{23}
4000 м слабый дождь 10/3 600 м
[St As op]
+5.5 +1.7 76 -1 -1 999.6 996.2
18 13.11 В 13
{27}
8000 м слабый дождь 10/10 600 м
[St]
+5.7 +1.1 72 -1 -1 1004.2 1000.8 +6.8 25
20 13.11 В 10
{32}
8000 м слабый дождь 10/10 600 м
[St]
+5.7 +0.9 71 -0 -0 1005.9 1002.5
19 13.11 В 10
{29}
8000 м слабый дождь 10/10 600 м
[St]
+5.5 +1.2 74 -1 -1 1004.7 1001.3
03 14.11 В 13
{29}
30 км 8/8 600 м
[Sc]
+6.5 -0.6 60 0 0 1010.4 1007.0
04 14.11 В 13
{29}
30 км 9/9 600 м
[Sc]
+6.6 -0.8 59 +1 +1 1011.1 1007.7
05 14.11 В 13 25 км слабый дождь 9/9 600 м
[Sc]
+6.2 +0.1 65 -0 -0 1012.1 1008.7
06 14.11 В 14 20 км слабый дождь 9/9 600 м
[Sc]
+6.5 -0.6 60 0 0 1012.7 1009.3 +4.8 4
08 14.11 В 14 20 км слабый дождь 9/9 600 м
[Sc Ci sp]
+6.6 -2.0 54 0 0 1015.4 1012.0
07 14.11 В 14 20 км слабый дождь 9/9 600 м
[Sc]
+6.4 -0.7 60 0 0 1013.3 1009.9
09 14.11 В 13 25 км в посл. час дождь 9/8 600 м
[Sc Ci fib]
+6.7 -0.9 58 +1 +1 1015.5 1012.1
10 14.11 В 12 25 км 9/9 600 м
[Sc]
+7.2 -2.1 52 +2 +2 1015.2 1011.8
11 14.11 В 12 30 км 8/8 600 м
[Cu Sc Ci fib]
+7.5 -1.7 52 +2 +2 1015.0 1011.6
12 14.11 В 11 30 км {дождь} 8/8 600 м
[Cu Sc]
+7.5 -2.0 51 +2 +2 1015.6 1012.2 0.1
13 14.11 В 11 30 км 8/8 600 м
[Cu Sc]
+7.6 -1.5 52 +2 +2 1016.0 1012.6
18 14.11 В 15
{33}
25 км {дождь} 9/9 600 м
[Sc]
+7.1 -1.0 56 +1 +1 1017.1 1013.7 +7.8 0.1
19 14.11 В 16
{30}
25 км 9/9 600 м
[Sc]
+7.3 -2.3 50 +1 +1 1016.8 1013.4
20 14.11 В 15
{31}
25 км 9/9 600 м
[Sc]
+7.2 -2.1 52 +1 +1 1016.5 1013.1
03 15.11 В 15 25 км 10/10 600 м
[Sc]
+6.4 -1.7 56 -0 -0 1019.2 1015.7
04 15.11 В 15 25 км 10/10 600 м
[Sc]
+6.3 -1.8 56 -0 -0 1017.8 1014.3
05 15.11 В 16 25 км слабый дождь 10/10 600 м
[Sc]
+6.3 -1.5 57 -0 -0 1019.0 1015.5
06 15.11 В 16 25 км слабый дождь 9/9 600 м
[Sc]
+5.9 -0.6 63 -1 -1 1019.2 1015.7 +5.6 0.0
07 15.11 В 15 20 км слабый дождь 9/9 600 м
[Sc]
+5.8 -0.7 63 -1 -1 1020.1 1016.6
08 15.11 В 16 18 км слабый дождь 9/9 600 м
[Sc]
+5.6 -0.1 67 -2 -2 1019.3 1015.8
09 15.11 В 15 20 км слабый дождь 10/10 600 м
[Sc]
+6.2 -0.7 61 -0 -0 1019.0 1015.5
10 15.11 В 16 20 км слабый дождь 10/10 600 м
[Sc]
+6.4 -1.4 57 -0 -0 1020.4 1016.9
11 15.11 В 13
{25}
15 км слабый дождь 10/10 600 м
[Sc]
+6.1 -0.9 61 -0 -0 1020.2 1016.7
12 15.11 В 17
{30}
15 км слабый дождь 9/9 600 м
[Sc]
+5.8 -0.7 63 -1 -1 1019.7 1016.2 0.0
13 15.11 В 19
{33}
15 км слабый дождь 9/9 600 м
[Sc]
+6.3 -0.6 61 -1 -1 1018.4 1014.9
18 15.11 В 18 12 км слабый дождь 10/10 1000 м
[Sc]
+6.1 +0.5 67 -1 -1 1021.2 1017.7 +6.7 0.2
19 15.11 В 17
{31}
12 км слабый дождь 10/10 1000 м
[Sc]
+6.1 0.0 65 -1 -1 1021.4 1017.9
20 15.11 В 16
{28}
12 км слабый дождь 10/10 1000 м
[Sc]
+5.9 +1.1 71 -1 -1 1021.4 1017.9
03 16.11 В 16
{26}
30 км 3/3 1000 м
[Sc]
+5.9 -0.3 64 -1 -1 1020.9 1017.4
05 16.11 В 19
{33}
30 км 1/1 1000 м
[St]
+6.2 +0.1 65 -1 -1 1018.6 1015.1
04 16.11 В 18 30 км 1/1 1000 м
[St]
+6.0 +0.1 66 -1 -1 1019.0 1015.5
06 16.11 В 21
{33}
25 км 1/1 1000 м
[St]
+6.1 +0.3 66 -2 -2 1018.7 1015.2 +5.5 0.6
07 16.11 В 18
{35}
25 км 6/6 1000 м
[Sc]
+6.5 +0.2 64 -1 -1 1019.8 1016.3
08 16.11 В 20
{34}
25 км 4/4 1000 м
[Sc]
+6.9 +0.4 63 -0 -0 1019.9 1016.4
09 16.11 В 18
{33}
25 км 5/5 1000 м
[Sc]
+7.5 +0.4 61 +1 +1 1019.2 1015.8
11 16.11 В 18
{32}
25 км 5/5 1000 м
[Sc]
+7.5 +0.6 62 +1 +1 1019.4 1016.0
10 16.11 В 17
{31}
25 км 4/4 1000 м
[Sc]
+7.9 +1.1 62 +2 +2 1019.9 1016.5
12 16.11 В 17
{31}
25 км 8/8 1000 м
[Sc]
+8.3 +1.1 60 +2 +2 1019.5 1016.1
13 16.11 В 19
{35}
25 км 8/8 1000 м
[Sc]
+7.7 +0.1 59 +1 +1 1018.8 1015.4
18 16.11 В 7
{19}
30 км 8/8 1000 м
[Sc]
+7.0 +1.9 70 +2 +2 1019.3 1015.8 +8.9
19 16.11 В 16
{29}
30 км 9/9 1000 м
[Sc]
+7.3 +1.2 65 +1 +1 1018.8 1015.4
20 16.11 В 15
{33}
30 км 9/9 1000 м
[Sc]
+7.3 +1.5 67 +1 +1 1019.1 1015.7
03 17.11 В 16
{29}
30 км 1/1 1000 м
[St]
+7.5 +1.7 67 +1 +1 1018.4 1015.0
04 17.11 В 15
{26}
30 км 1/1 1000 м
[St]
+7.7 +1.7 66 +2 +2 1017.6 1014.2
05 17.11 В 16
{29}
30 км 1/1 1000 м
[St]
+7.8 +1.6 65 +2 +2 1017.1 1013.7
06 17.11 В 16
{32}
30 км 1/1 1000 м
[St]
+7.9 +2.2 67 +2 +2 1017.2 1013.8 +6.9
07 17.11 В 13
{26}
30 км 1/1 1000 м
[St]
+7.9 +2.2 67 +2 +2 1017.6 1014.2
08 17.11 В 8
{17}
30 км 1/1 1000 м
[Sc]
+8.9 +2.9 66 +5 +5 1018.2 1014.8
09 17.11 В 15
{29}
30 км 1/1 1000 м
[Sc]
+9.3 +2.9 64 +4 +4 1018.0 1014.6
10 17.11 В 15
{29}
30 км 1/1 1000 м
[Sc Ac trans]
+10.0 +3.0 62 +5 +5 1018.2 1014.8
11 17.11 В 13
{24}
30 км 1/1 1000 м
[Sc]
+10.0 +2.7 60 +5 +5 1018.2 1014.8
12 17.11 В 10
{30}
30 км 1/1 1000 м
[Sc Ac trans]
+10.5 +3.9 64 +6 +7 1017.2 1013.8
13 17.11 В 12
{21}
30 км 1/1 1000 м
[St Ac trans]
+10.5 +2.9 59 +6 +6 1016.8 1013.4
18 17.11 В 12
{20}
30 км 1/1 1000 м
[St]
+8.2 +1.3 62 +3 +3 1017.5 1014.1 +11.0
20 17.11 В 13
{22}
30 км 1/1 1000 м
[St]
+7.4 +1.1 64 +2 +2 1017.9 1014.5
19 17.11 В 11
{20}
30 км 1/1 1000 м
[St]
+7.6 +0.8 62 +2 +2 1018.0 1014.6
03 18.11 В 14
{24}
30 км 1/1 1000 м
[St]
+7.3 +0.9 64 +1 +1 1017.1 1013.7
04 18.11 В 12
{23}
30 км 1/1 1000 м
[St]
+7.5 +0.6 62 +2 +2 1016.8 1013.4
05 18.11 В 11
{24}
30 км 1/1 1000 м
[St Ci fib]
+7.4 +1.1 64 +2 +2 1016.4 1013.0
06 18.11 В 12
{21}
30 км 8/1 1000 м
[St Ac trans Ci fib]
+7.5 +0.9 63 +2 +2 1016.6 1013.2 +6.3
08 18.11 В 11
{18}
30 км 8/3 1000 м
[Cu hum Ac trans Ci sp]
+8.7 +0.5 56 +4 +4 1017.6 1014.2
07 18.11 В 10
{19}
30 км 6/1 1000 м
[St Ac trans Ci sp]
+7.7 +0.9 62 +3 +3 1017.4 1014.0
09 18.11 В 8 30 км 5/1 1000 м
[Cu hum Ac trans Ci sp]
+9.4 +0.6 54 +6 +6 1017.8 1014.4
10 18.11 В 10
{20}
30 км 3/1 1000 м
[Cu hum Ac trans Ci sp]
+10.0 +1.4 55 +6 +6 1017.4 1014.0
11 18.11 В 9 30 км 3/1 1000 м
[St Ac trans Ci fib]
+9.6 +0.6 53 +6 +6 1016.6 1013.2
12 18.11 В 11 30 км 1/1 1000 м
[St Ac trans]
+9.5 +2.4 61 +5 +5 1016.4 1013.0
13 18.11 В 11
{21}
30 км 1/1 1000 м
[St As trans]
+9.3 +2.6 63 +5 +5 1016.2 1012.8
18 18.11 В 9 30 км 1/1 1000 м
[St]
+8.4 +2.5 66 +4 +4 1016.2 1012.8 +10.2
19 18.11 В 8 30 км 1/1 1000 м
[St]
+8.6 +1.8 62 +4 +4 1015.9 1012.5
20 18.11 В 9
{20}
30 км 1/1 1000 м
[St]
+8.5 +1.9 63 +4 +4 1015.8 1012.4
03 19.11 В 4 30 км 8/0
[Cs]
+8.8 -1.0 50 +6 +6 1013.9 1010.5
04 19.11 В 4 30 км 8/0
[Ac trans Cs]
+9.3 -0.3 51 +7 +7 1013.4 1010.0
05 19.11 В 4 30 км 8/0
[Ac und]
+9.4 -0.8 49 +7 +7 1012.9 1009.5
06 19.11 В 5 30 км 6/0
[Ci sp]
+9.5 -1.2 47 +7 +7 1012.8 1009.4 +7.8
07 19.11 В 5 30 км 9/0
[Ac As Cs]
+9.3 -1.5 47 +7 +7 1012.9 1009.5
08 19.11 В 5 30 км 9/0
[Ac As Cs]
+9.5 -0.6 49 +7 +7 1013.1 1009.7
09 19.11 В 5 30 км 9/9 1000 м
[Sc]
+10.4 -0.8 46 +8 +8 1013.0 1009.6
10 19.11 В 4 30 км 9/9 1000 м
[Sc]
+10.5 -1.0 45 +8 +9 1012.3 1008.9
11 19.11 В 5 30 км 9/9 1000 м
[Sc]
+10.7 -0.4 46 +8 +8 1011.5 1008.1
12 19.11 ЮВ 2 30 км 8/8 1000 м
[Sc Ci fib]
+11.2 +0.9 49 +10 +11 1011.0 1007.6
13 19.11 ЮВ 1 30 км 4/3 1000 м
[Cu Sc Ac trans]
+12.4 +1.5 47 +13 +14 1010.9 1007.5
18 19.11 В 9 30 км 1/1 1000 м
[Sc]
+8.8 +1.0 58 +4 +4 1013.9 1010.5 +14.0
19 19.11 В 7 30 км 1/1 1000 м
[Sc]
+7.9 +0.9 61 +4 +4 1014.0 1010.6
20 19.11 В 7 30 км 1/1 1000 м
[Sc]
+7.6 +0.8 62 +3 +3 1014.4 1011.0

 

Местоположение метеостанции Senj (Хорватия): широта 45.00 долгота 14.90 высота над уровнем моря 28 м.

В архиве по умолчанию представлена погода в Senj за последнюю неделю. Архивные данные за месяц целиком и за предыдущие месяцы, начиная с января 2011 года, Вы можете получить, выбрав интересующий диапазон дат из раскрывающегося списка и нажав кнопку "Ввод!".

Внимание! Время в таблицах - всемирное. Для получения местного времени необходимо прибавить поправку, которая в Senj равна 1 ч.

Смотрите также архив погоды в соседних городах и на ближайших метеорологических станциях:

Погода в Zavizan (Хорватия) (21 км)
Погода в Rab (Хорватия) (30 км)
Погода в Rijeka-Omisalj (Хорватия) (35 км)
Погода в Ogulin (Хорватия) (40 км)
Погода в Rijeka-Kozala (Хорватия) (51 км)
Погода в Mali Losinj (Хорватия) (62 км)
Погода в Gospic (Хорватия) (62 км)
Погода в Crnomelj (Словения) (66 км)
Погода в Parg (Хорватия) (70 км)
Погода в Kocevje (Словения) (72 км)

Пояснения к столбцам:

Ветер - указаны скорость ветра в м/с - средняя за 10 мин, порывы в срок и между сроками (в фигурных скобках) и направление, откуда дует ветер: С - северный, СВ - северо-восточный, В - восточный, ЮВ - юго-восточный, Ю - южный, ЮЗ - юго-западный, З - западный, СЗ - северо-западный.
Видимость - горизонтальная дальность видимости в метрах или километрах. При видимости от 1 до 10 км при отсутствии осадков обычно наблюдается дымка, при ухудшении видимости до 1 км и менее - туман. В сухую погоду видимость может ухудшаться дымом, пылью или мглою.
Явления - указаны атмосферные явления, наблюдавшиеся в срок или в последний час перед сроком; фигурными скобками обозначены явления, наблюдавшиеся между сроками (за 1-3 часа до срока); квадратными скобками обозначены град или гололедные отложения с указанием их диаметра в мм.
Облачность - указаны через наклонную черту общая и нижняя облачность в баллах и высота нижней границы облаков в метрах; квадратными скобками обозначены формы облаков: Ci - перистые, Cs - перисто-слоистые, Cc - перисто-кучевые, Ac - высококучевые, As - высокослоистые, Sc - слоисто-кучевые, Ns - слоисто-дождевые, Cu - кучевые, Cb - кучево-дождевые. Подробнее классификацию облаков см. в Атласе облаков (PDF).
T - Температура воздуха - температура, измеренная на высоте 2 м над землей.
Td - Температура точки росы - температура, при понижении до которой содержащийся в воздухе водяной пар достигнет насыщения.
f - Относительная влажность воздуха - влажноcть воздуха, измеренная на высоте 2 м над землей.
Te - Эффективная температура - температура, которую ощущает одетый по сезону человек в тени. Характеристика душности погоды. При расчете учитывается влияние влажности воздуха и скорости ветра на теплоощущения человека.
Tes - Эффективная температура на солнце - температура, которую ощущает человек, с поправкой на солнечный нагрев. Характеристика знойности погоды. Зависит от высоты солнца над горизонтом, облачности и скорости ветра. Ночью, в пасмурную погоду, а также при ветре 12 м/с и более поправка равна нулю.
P - Атмосферное давление - приведенное к уровню моря атмосферное давление.
Po - Атмосферное давление - измеренное на уровне метеостанции атмосферное давление.
Tmin - Минимальная температура - минимум температуры воздуха на высоте 2 м над землей.
Tmax - Максимальная температура - максимум температуры воздуха на высоте 2 м над землей.
R - Количество осадков - Количество выпавших осадков за период времени, мм. При наведении курсора мыши на число - период времени, за который выпало указанное количество осадков.
R24 - Количество осадков - Количество выпавших осадков за 24 часа, мм.
S - Снежный покров - Высота снежного покрова, см. При наведении курсора мыши на число - состояние снежного покрова и степень покрытия местности в баллах.